Location: Fort Wayne
(41.1310°N, 85.1290°W)
Time: 18:04:54
(UTC-04:00)

Amateur Radio Satellites - All Passes

Search period start: 25 October 2014 17:34
Search period end: 26 October 2014 17:34
Location: Fort Wayne, 41.1310°N, 85.1290°W

Satellite Date Start Highest point End Downlink Frequencies (MHz)
Time Altitude Azimuth
UOSAT-12 25 Oct 17:37:34 17:39:23 12° 325° (NW) 17:41:13 437.025 FM, 437.400 FM
AO-40 25 Oct 17:45:51 23:56:12 42° 184° (S) 05:46:32 Beacon 2401.320
AO-7 25 Oct 18:11:36 18:18:57 35° 263° (W) 18:26:23 29.400 - 29.500 MHz
Uosat F 25 Oct 18:12:57 18:17:10 27° 264° (W) 18:21:27 435.120 FM
OPAL 25 Oct 18:18:17 18:22:30 27° 98° (E) 18:26:40 ?
ISS 25 Oct 18:49:39 18:52:39 29° 25° (NNE) 18:55:37 145.800 FM
Hamsat 25 Oct 18:51:11 18:55:23 72° 259° (WSW) 18:59:35 145.90 MHz
JAS-2 25 Oct 18:52:18 18:58:06 59° 261° (W) 19:04:46 435.800 - 435.900 CW/SSB, 435.910 FM
KITSAT 1 25 Oct 18:54:17 18:57:27 12° 16° (NNE) 19:00:38 435.175 FM
SO-67 25 Oct 19:30:15 19:33:22 33° 73° (ENE) 19:36:30 435.3500 MHz FM
OPAL 25 Oct 19:56:56 20:01:23 34° 294° (WNW) 20:05:48 ?
HO-68 25 Oct 20:00:49 20:05:18 18° 54° (NE) 20:09:47 435.675 MHz FM
STRAND 1 25 Oct 20:03:39 20:08:28 38° 98° (E) 20:13:14 ?
ISS 25 Oct 20:26:15 20:29:24 40° 222° (SW) 20:32:32 145.800 FM
KITSAT 1 25 Oct 20:48:43 20:55:53 33° 44° (NE) 21:03:01 435.175 FM
SO-67 25 Oct 21:04:53 21:06:28 13° 268° (W) 21:08:04 435.3500 MHz FM
RS-15 25 Oct 21:06:47 21:13:05 17° 98° (E) 21:19:18 29.354 - 29.394 USB, Beacon 29.352 USB
Oscar 11 25 Oct 21:12:54 21:14:01 11° 62° (ENE) 21:15:07 145.825 FM, Beacon 2401.500 USB
SO-50 25 Oct 21:25:24 21:29:27 26° 45° (NE) 21:33:31 436.795 FM
STRAND 1 25 Oct 21:43:13 21:47:27 26° 295° (WNW) 21:51:39 ?
HO-68 25 Oct 21:44:50 21:52:00 87° 73° (ENE) 21:59:14 435.675 MHz FM
ZACube-1 25 Oct 22:02:50 22:05:50 18° 65° (ENE) 22:08:49 437.345 MHz
UKube-1 25 Oct 22:04:48 22:08:55 44° 71° (ENE) 22:13:05 145.840 MHz, 145.915 MHz
KITSAT 1 25 Oct 22:43:51 22:51:49 65° 245° (WSW) 22:59:45 435.175 FM
UOSAT-12 25 Oct 22:44:20 22:47:26 17° 40° (NE) 22:50:30 437.025 FM, 437.400 FM
Oscar 11 25 Oct 22:45:15 22:49:35 74° 258° (WSW) 22:53:55 145.825 FM, Beacon 2401.500 USB
FUNcube-1 25 Oct 22:45:41 22:50:04 47° 73° (ENE) 22:54:24 145.950 - 145.970 MHz USB
SO-50 25 Oct 23:05:34 23:10:12 46° 243° (WSW) 23:14:52 436.795 FM
RS-15 25 Oct 23:12:32 23:23:31 79° 119° (ESE) 23:34:27 29.354 - 29.394 USB, Beacon 29.352 USB
HO-68 25 Oct 23:36:21 23:40:33 16° 270° (W) 23:44:45 435.675 MHz FM
ZACube-1 25 Oct 23:37:26 23:41:51 48° 261° (W) 23:46:15 437.345 MHz
UKube-1 25 Oct 23:42:36 23:45:20 16° 267° (W) 23:48:04 145.840 MHz, 145.915 MHz
MaSat-1 26 Oct 00:13:04 00:17:06 53° 113° (ESE) 00:20:46 437.345 MHz
UOSAT-12 26 Oct 00:23:26 00:28:09 78° 239° (WSW) 00:32:47 437.025 FM, 437.400 FM
FUNcube-1 26 Oct 00:23:42 00:26:39 17° 268° (W) 00:29:35 145.950 - 145.970 MHz USB
KITSAT 1 26 Oct 00:44:12 00:45:38 11° 263° (W) 00:47:04 435.175 FM
RS-15 26 Oct 01:27:19 01:37:02 35° 324° (NW) 01:46:52 29.354 - 29.394 USB, Beacon 29.352 USB
Oscar 10/S400 26 Oct 01:33:59 02:36:39 24° 238° (WSW) 05:29:01 145.825 - 145.975 CW/USB, Beacon 145.810 USB
MaSat-1 26 Oct 01:50:46 01:52:52 14° 306° (NW) 01:54:53 437.345 MHz
JAS-1B 26 Oct 02:12:42 02:18:10 24° 95° (E) 02:24:18 435.800 - 435.900 CW/SSB
Oscar 19 26 Oct 02:24:24 02:28:31 24° 94° (E) 02:32:36 437.125 CW, 437.150 USB
AO-27 26 Oct 02:46:01 02:49:06 16° 91° (E) 02:52:11 436.795 MHz FM
AO-Echo 26 Oct 02:55:31 02:59:58 27° 94° (E) 03:04:23 ?
Oscar 16 26 Oct 03:09:41 03:14:48 67° 102° (ESE) 03:19:52 437.025 USB, Beacon 2401.1428
Sapphire 26 Oct 03:14:35 03:17:05 13° 103° (ESE) 03:19:35 437.095 MHz 1200 baud AX-25 AFSK
Uribyol 2 26 Oct 03:31:36 03:36:36 45° 99° (E) 03:41:32 436.500 FM
PCSat 26 Oct 03:35:01 03:39:11 23° 107° (ESE) 03:43:24 145.825 MHz
ITAMSAT 1 26 Oct 03:37:55 03:42:59 48° 100° (E) 03:48:00 435.822 SSB
RS-15 26 Oct 03:46:31 03:54:02 20° 359° (N) 04:01:41 29.354 - 29.394 USB, Beacon 29.352 USB
JAS-1B 26 Oct 04:02:22 04:08:59 65° 288° (WNW) 04:16:56 435.800 - 435.900 CW/SSB
Oscar 19 26 Oct 04:03:13 04:07:58 40° 291° (WNW) 04:12:42 437.125 CW, 437.150 USB
Gurwin Techsat 1B 26 Oct 04:05:06 04:10:14 46° 99° (E) 04:15:19 435.225 FM
TMSAT-1 26 Oct 04:15:33 04:20:36 43° 98° (E) 04:25:36 436.925 FM
AO-7 26 Oct 04:21:52 04:26:12 15° 89° (E) 04:30:29 29.400 - 29.500 MHz
AO-27 26 Oct 04:23:52 04:29:03 63° 287° (WNW) 04:34:11 436.795 MHz FM
AO-Echo 26 Oct 04:33:52 04:38:48 39° 291° (WNW) 04:43:42 ?
Oscar 16 26 Oct 04:50:34 04:53:35 16° 299° (WNW) 04:56:35 437.025 USB, Beacon 2401.1428
Sapphire 26 Oct 04:54:21 04:59:45 81° 300° (WNW) 05:05:13 437.095 MHz 1200 baud AX-25 AFSK
Uribyol 2 26 Oct 05:11:43 05:15:46 23° 296° (WNW) 05:19:48 436.500 FM
PCSat 26 Oct 05:17:01 05:22:15 49° 304° (NW) 05:27:32 145.825 MHz
ITAMSAT 1 26 Oct 05:18:11 05:22:07 22° 296° (WNW) 05:26:02 435.822 SSB
OPAL 26 Oct 05:32:47 05:37:45 51° 69° (ENE) 05:42:40 ?
Gurwin Techsat 1B 26 Oct 05:45:46 05:49:52 23° 296° (WNW) 05:53:58 435.225 FM
TMSAT-1 26 Oct 05:56:01 06:00:15 25° 295° (WNW) 06:04:28 436.925 FM
JAS-1B 26 Oct 05:56:40 05:58:40 11° 305° (NW) 06:00:44 435.800 - 435.900 CW/SSB
JAS-2 26 Oct 06:01:29 06:07:47 26° 91° (E) 06:14:01 435.800 - 435.900 CW/SSB, 435.910 FM
RS-15 26 Oct 06:01:34 06:11:16 33° 34° (NNE) 06:21:14 29.354 - 29.394 USB, Beacon 29.352 USB
AO-7 26 Oct 06:11:47 06:20:09 80° 107° (ESE) 06:28:30 29.400 - 29.500 MHz
Uosat F 26 Oct 06:19:40 06:24:45 88° 285° (WNW) 06:29:47 435.120 FM
Hamsat 26 Oct 06:37:36 06:40:40 19° 93° (E) 06:43:44 145.90 MHz
Sapphire 26 Oct 06:41:00 06:44:04 15° 320° (NW) 06:47:09 437.095 MHz 1200 baud AX-25 AFSK
PCSat 26 Oct 07:06:26 07:07:02 10° 326° (NW) 07:07:37 145.825 MHz
OPAL 26 Oct 07:13:15 07:16:52 19° 265° (W) 07:20:29 ?
STRAND 1 26 Oct 07:19:24 07:24:24 56° 72° (ENE) 07:29:26 ?
Saudisat 1A 26 Oct 07:24:33 07:28:04 24° 113° (ESE) 07:31:36 436.775 MHz
JAS-2 26 Oct 07:45:31 07:53:15 68° 288° (WNW) 08:00:57 435.800 - 435.900 CW/SSB, 435.910 FM
Uosat F 26 Oct 08:01:06 08:02:44 12° 302° (WNW) 08:04:23 435.120 FM
AO-7 26 Oct 08:05:46 08:12:04 25° 306° (NW) 08:18:23 29.400 - 29.500 MHz
Hamsat 26 Oct 08:12:53 08:16:41 34° 289° (WNW) 08:20:30 145.90 MHz
RS-15 26 Oct 08:13:55 08:25:09 88° 239° (WSW) 08:36:53 29.354 - 29.394 USB, Beacon 29.352 USB
SO-67 26 Oct 08:26:06 08:29:22 40° 98° (E) 08:32:37 435.3500 MHz FM
PANSAT 26 Oct 08:59:47 09:01:20 12° 177° (S) 09:02:53 not established
STRAND 1 26 Oct 09:00:34 09:03:55 17° 268° (W) 09:07:18 ?
Saudisat 1A 26 Oct 09:03:22 09:07:26 37° 310° (NW) 09:11:33 436.775 MHz
HO-68 26 Oct 09:14:44 09:18:50 16° 89° (E) 09:22:54 435.675 MHz FM
JAS-2 26 Oct 09:32:51 09:36:54 15° 306° (NW) 09:41:00 435.800 - 435.900 CW/SSB, 435.910 FM
MaSat-1 26 Oct 09:59:01 10:01:36 78° 245° (WSW) 10:03:59 437.345 MHz
SO-67 26 Oct 10:00:43 10:01:58 12° 294° (WNW) 10:03:13 435.3500 MHz FM
RS-15 26 Oct 10:28:13 10:36:00 22° 259° (W) 10:44:02 29.354 - 29.394 USB, Beacon 29.352 USB
Oscar 11 26 Oct 10:33:45 10:36:54 20° 93° (E) 10:40:03 145.825 FM, Beacon 2401.500 USB
PANSAT 26 Oct 10:40:16 10:40:41 10° 190° (S) 10:41:06 not established
HO-68 26 Oct 11:00:09 11:07:24 89° 286° (WNW) 11:14:35 435.675 MHz FM
KITSAT 1 26 Oct 11:19:49 11:24:56 19° 101° (ESE) 11:30:02 435.175 FM
ZACube-1 26 Oct 11:27:04 11:30:51 31° 96° (E) 11:34:33 437.345 MHz
UKube-1 26 Oct 11:28:47 11:33:11 85° 103° (ESE) 11:37:33 145.840 MHz, 145.915 MHz
Oscar 10/S400 26 Oct 11:56:31 12:13:49 19° 152° (SSE) 12:26:05 145.825 - 145.975 CW/USB, Beacon 145.810 USB
Sapphire 26 Oct 12:00:31 12:03:35 15° 40° (NE) 12:06:37 437.095 MHz 1200 baud AX-25 AFSK
Oscar 11 26 Oct 12:09:15 12:13:11 35° 289° (WNW) 12:17:05 145.825 FM, Beacon 2401.500 USB
FUNcube-1 26 Oct 12:11:06 12:15:21 81° 284° (WNW) 12:19:30 145.950 - 145.970 MHz USB
PCSat 26 Oct 12:22:12 12:26:23 22° 46° (NE) 12:30:32 145.825 MHz
HO-68 26 Oct 12:49:32 12:54:08 19° 306° (NW) 12:58:43 435.675 MHz FM
Oscar 16 26 Oct 12:50:55 12:53:05 13° 59° (ENE) 12:55:16 437.025 USB, Beacon 2401.1428
JAS-1B 26 Oct 13:01:35 13:04:51 16° 59° (ENE) 13:08:05 435.800 - 435.900 CW/SSB
ZACube-1 26 Oct 13:03:49 13:07:04 22° 293° (WNW) 13:10:16 437.345 MHz
ISS 26 Oct 13:07:48 13:11:05 67° 141° (SE) 13:14:24 145.800 FM
KITSAT 1 26 Oct 13:11:08 13:19:14 89° 300° (WNW) 13:27:22 435.175 FM
SO-50 26 Oct 13:20:06 13:24:30 60° 119° (ESE) 13:29:03 436.795 FM
Oscar 19 26 Oct 13:41:06 13:45:44 35° 68° (ENE) 13:50:23 437.125 CW, 437.150 USB
Sapphire 26 Oct 13:42:26 13:47:54 79° 60° (ENE) 13:53:19 437.095 MHz 1200 baud AX-25 AFSK
AO-27 26 Oct 14:03:46 14:07:57 25° 65° (ENE) 14:12:09 436.795 MHz FM
PCSat 26 Oct 14:04:53 14:10:15 63° 245° (WSW) 14:15:34 145.825 MHz
AO-Echo 26 Oct 14:08:28 14:12:48 32° 68° (ENE) 14:17:17 ?
Oscar 16 26 Oct 14:26:32 14:31:42 86° 256° (WSW) 14:36:53 437.025 USB, Beacon 2401.1428
UOSAT-12 26 Oct 14:34:43 14:38:49 32° 114° (ESE) 14:43:00 437.025 FM, 437.400 FM
ISS 26 Oct 14:45:19 14:48:02 23° 339° (NNW) 14:50:46 145.800 FM
JAS-1B 26 Oct 14:49:01 14:54:57 71° 257° (WSW) 15:00:37 435.800 - 435.900 CW/SSB
Uribyol 2 26 Oct 14:49:17 14:54:27 68° 73° (ENE) 14:59:40 436.500 FM
ITAMSAT 1 26 Oct 14:55:46 15:00:57 73° 74° (ENE) 15:06:11 435.822 SSB
SO-50 26 Oct 15:02:09 15:05:27 19° 318° (NW) 15:08:50 436.795 FM
KITSAT 1 26 Oct 15:09:20 15:15:45 25° 322° (NW) 15:22:12 435.175 FM
AO-7 26 Oct 15:20:35 15:26:50 25° 54° (NE) 15:33:05 29.400 - 29.500 MHz
Oscar 19 26 Oct 15:20:44 15:25:06 28° 265° (W) 15:29:29 437.125 CW, 437.150 USB
Gurwin Techsat 1B 26 Oct 15:26:04 15:31:21 73° 74° (ENE) 15:36:40 435.225 FM
Sapphire 26 Oct 15:27:59 15:30:35 14° 257° (WSW) 15:33:11 437.095 MHz 1200 baud AX-25 AFSK
TMSAT-1 26 Oct 15:36:09 15:41:24 67° 73° (ENE) 15:46:40 436.925 FM
AO-27 26 Oct 15:42:18 15:47:12 41° 262° (W) 15:52:09 436.795 MHz FM
AO-Echo 26 Oct 15:47:19 15:51:33 29° 265° (W) 15:55:55 ?
Saudisat 1A 26 Oct 15:50:45 15:54:16 22° 45° (NE) 15:57:45 436.775 MHz
Uosat F 26 Oct 15:56:38 15:59:37 16° 61° (ENE) 16:02:37 435.120 FM
UOSAT-12 26 Oct 16:14:45 16:18:56 32° 312° (NW) 16:23:11 437.025 FM, 437.400 FM
ISS 26 Oct 16:23:52 16:25:39 14° 360° (N) 16:27:25 145.800 FM
Uribyol 2 26 Oct 16:31:34 16:34:24 15° 270° (W) 16:37:15 436.500 FM
ITAMSAT 1 26 Oct 16:38:29 16:40:58 13° 270° (W) 16:43:28 435.822 SSB
Gurwin Techsat 1B 26 Oct 17:09:13 17:11:51 14° 270° (W) 17:14:30 435.225 FM
AO-7 26 Oct 17:10:28 17:18:44 80° 253° (WSW) 17:27:05 29.400 - 29.500 MHz
KITSAT 1 26 Oct 17:12:46 17:14:45 11° 352° (N) 17:16:44 435.175 FM
TMSAT-1 26 Oct 17:18:47 17:21:47 15° 270° (W) 17:24:47 436.925 FM
